This is the latest recevied weather packets stored in our database for station/object HB9BTL-13. If no packets are shown the sender has not sent any weather packets the latest 10 day(s).
| Time | Temp. | Humidity | Pressure | Rain* | Wind** | Luminosity | Snow |
|---|---|---|---|---|---|---|---|
| 1777760016 | 17.78° C | 71% | 1017.3 hPa | - | - | - | - |
| 1777759110 | 18.33° C | 70% | 1017.3 hPa | - | - | - | - |
| 1777758206 | 18.33° C | 68% | 1017.2 hPa | - | - | - | - |
| 1777757300 | 17.78° C | 70% | 1017.2 hPa | - | - | - | - |
| 1777756395 | 18.33° C | 68% | 1017.1 hPa | - | - | - | - |
| 1777755489 | 18.89° C | 62% | 1017.1 hPa | - | - | - | - |
| 1777754584 | 18.89° C | 63% | 1017.2 hPa | - | - | - | - |
| 1777753678 | 18.89° C | 64% | 1017.1 hPa | - | - | - | - |
| 1777752773 | 19.44° C | 62% | 1017.1 hPa | - | - | - | - |
| 1777751868 | 20° C | 60% | 1017.1 hPa | - | - | - | - |
| 1777750962 | 20° C | 59% | 1017.1 hPa | - | - | - | - |
| 1777750057 | 20° C | 55% | 1016.9 hPa | - | - | - | - |
| 1777749151 | 19.44° C | 57% | 1016.9 hPa | - | - | - | - |
| 1777748246 | 20° C | 55% | 1016.7 hPa | - | - | - | - |
| 1777747340 | 20.56° C | 54% | 1016.5 hPa | - | - | - | - |
| 1777746435 | 21.11° C | 53% | 1016.6 hPa | - | - | - | - |
| 1777745530 | 21.11° C | 54% | 1016.5 hPa | - | - | - | - |
| 1777744625 | 21.67° C | 51% | 1016.4 hPa | - | - | - | - |
| 1777743719 | 22.22° C | 52% | 1016.4 hPa | - | - | - | - |
| 1777742814 | 22.78° C | 52% | 1016.4 hPa | - | - | - | - |
| 1777741909 | 22.78° C | 51% | 1016.4 hPa | - | - | - | - |
| 1777741003 | 23.33° C | 45% | 1016.5 hPa | - | - | - | - |
| 1777740098 | 24.44° C | 39% | 1016.6 hPa | - | - | - | - |
| 1777739192 | 24.44° C | 39% | 1016.7 hPa | - | - | - | - |
| 1777738287 | 25° C | 36% | 1017 hPa | - | - | - | - |
* Rain since midnight (hover to see other rain measurements)
** Current wind speed in m/s (hover to see current wind gust speed)